Temperature
23 22 22 22 21 21 21 20 20 20 20 19 19 19 19 19 19 19 18 18 18 18 18 18 18 18 18 18 18 18 18 18 18 18 18 18 18 18 18 18 18 18 17
22 22 22 22 21 21 21 20 20 20 20 19 19 19 19 19 19 19 18 18 18 18 18 18 18 18 18 18 18 18 18 18 18 18 18 17 18 18 18 18 18 18 17
23 22 22 22 22 21 21 21 20 20 20 20 19 19 19 19 19 19 19 19 18 18 18 18 18 18 18 18 18 18 18 18 17 17 17 17 17 17 17 17 17 17 17
23 23 22 22 22 22 21 21 20 20 20 20 20 19 19 19 19 19 19 18 18 18 18 18 18 18 18 18 18 18 17 17 18 17 17 17 17 17 17 17 17 17 17
24 23 23 23 22 22 21 21 21 20 20 20 20 19 19 19 19 19 19 19 18 18 18 18 18 18 18 18 18 18 18 18 17 17 17 17 17 17 17 16 17 17 17
24 24 23 23 22 22 21 21 21 20 20 20 20 20 19 19 19 19 19 19 19 19 18 18 18 18 18 18 18 18 18 18 17 17 17 17 17 17 17 17 17 17 17
24 24 23 23 22 22 22 21 21 21 20 20 20 20 20 19 19 19 19 19 19 19 19 18 18 18 18 18 18 18 18 17 17 17 17 17 17 17 17 17 16 16 16
24 24 24 23 23 22 22 22 21 21 21 20 20 20 20 20 19 19 19 19 19 19 19 18 18 18 18 18 18 18 18 17 17 17 17 17 17 17 17 17 16 16 16
24 24 24 23 23 23 22 22 22 21 21 21 20 20 20 20 20 19 19 19 19 18 18 18 18 18 18 18 18 18 18 17 17 17 17 17 17 17 17 16 16 16 15
24 24 24 24 23 23 23 22 22 22 21 21 20 20 20 20 20 19 19 19 19 18 18 18 18 18 18 18 18 18 18 17 17 17 17 17 17 17 16 16 16 16 16
24 24 24 23 23 23 22 22 22 22 21 21 20 20 20 20 20 19 19 19 19 18 18 18 18 18 18 18 17 17 17 17 17 17 17 17 17 16 16 16 16 16 16
24 24 23 23 23 22 22 22 22 21 21 21 20 20 20 20 20 19 19 19 19 18 18 18 18 18 17 17 17 17 17 17 17 16 16 16 16 16 16 16 16 16 15
23 23 23 23 22 22 22 22 21 21 21 21 20 20 20 20 19 19 19 19 18 18 18 18 18 17 17 17 17 17 16 16 16 16 16 16 16 16 16 15 15 15 15
23 23 22 22 22 22 21 21 21 21 21 20 20 20 20 19 19 19 19 18 18 18 18 18 17 17 17 17 17 16 16 16 16 16 16 15 15 15 15 15 15 15 15
22 23 22 22 22 22 21 21 21 20 20 20 20 20 20 19 19 19 18 18 18 18 18 17 17 17 17 17 17 16 16 16 16 16 15 15 15 15 15 15 15 15 14
22 22 22 22 21 21 21 20 20 20 20 20 19 19 19 19 19 18 18 18 18 18 17 17 17 17 17 16 16 16 16 16 15 15 15 15 15 15 15 14 14 14 14
22 22 22 22 21 21 21 20 20 20 19 19 19 19 19 19 18 18 18 18 18 17 17 17 17 17 17 16 16 16 16 15 15 15 15 15 15 14 14 14 14 14 14
22 22 22 22 21 21 20 20 20 19 19 19 19 18 18 18 18 18 17 17 17 17 17 17 17 17 16 16 16 15 15 15 15 15 15 15 14 14 14 14 14 14 14
22 22 22 21 21 20 20 20 19 19 19 19 18 18 18 18 17 17 17 17 17 17 17 17 16 16 16 16 15 15 15 15 15 15 14 14 14 14 14 14 14 14 14
22 21 21 21 20 20 20 20 19 19 19 18 18 18 18 17 17 17 17 17 17 16 16 16 16 16 16 16 15 15 15 15 15 14 14 14 14 14 14 13 13 13 14
21 21 20 20 20 20 19 19 19 19 18 18 18 18 17 17 17 17 17 16 16 16 16 16 16 15 15 15 15 15 14 14 14 14 14 14 14 13 13 13 13 13 13
20 20 20 20 19 19 19 19 18 18 18 18 17 17 17 17 17 17 16 16 16 16 15 15 15 15 15 15 15 14 14 14 14 14 14 14 14 13 13 13 13 13 13
20 20 19 19 19 19 18 18 18 18 17 17 17 17 17 16 16 16 16 16 15 15 15 15 15 15 15 15 14 14 14 14 13 13 13 13 13 13 13 13 13 13 13
19 19 19 18 18 18 18 18 17 17 17 17 16 16 16 16 16 16 16 15 15 15 15 15 14 14 14 14 14 14 14 14 13 13 13 13 13 13 13 13 12 12 12
18 18 18 18 17 17 17 17 17 17 16 16 16 16 16 16 16 15 15 15 15 15 15 14 14 14 14 14 14 13 13 13 13 13 13 13 13 13 13 13 12 12 12
18 17 17 17 17 17 17 16 16 16 16 16 16 15 15 15 15 15 15 15 15 15 14 14 14 14 14 14 14 13 13 13 13 13 13 13 12 12 12 12 12 12 12
Wind_Speed
10 10 11 10 9 8 7 7 6 5 3 2 2 1 1 0 0 1 2 1 2 2 2 2 1 2 2 1 1 1 2 1 1 2 2 3 2 1 1 1 1 2 3
9 10 10 10 9 9 8 7 7 5 4 3 3 2 2 1 1 0 1 2 2 2 2 2 2 1 1 1 1 1 1 0 1 1 1 2 4 3 2 1 0 1 1
13 12 11 10 10 9 9 9 7 6 5 4 2 2 2 2 1 1 0 1 2 2 2 2 2 1 2 1 1 1 2 1 2 1 3 2 2 3 3 2 1 1 0
12 12 12 11 10 10 8 8 7 6 5 5 4 4 3 2 2 2 1 1 1 2 2 2 2 2 1 1 1 1 1 2 1 1 0 2 3 1 2 3 2 2 1
14 14 13 12 11 10 9 7 7 6 5 5 5 4 3 3 2 1 1 2 1 1 2 2 2 2 1 1 1 1 1 1 1 1 0 0 1 1 2 2 3 3 2
12 11 10 9 8 8 8 8 7 6 6 5 5 5 5 3 2 2 2 1 1 1 1 1 2 2 2 2 1 1 1 1 1 1 1 1 1 1 2 2 2 2 3
12 11 11 11 10 10 9 8 8 7 6 6 5 5 5 4 4 3 3 2 1 1 2 1 1 1 2 2 1 1 1 0 0 1 1 1 2 2 2 2 1 2 2
11 12 12 13 12 12 10 9 8 7 6 6 6 5 4 3 3 3 3 3 2 2 2 1 1 1 1 1 1 1 1 0 0 0 0 0 1 1 2 2 2 1 2
11 11 11 11 12 12 11 10 9 7 6 6 6 5 4 4 4 3 2 2 2 1 1 1 1 1 1 1 1 1 1 0 0 1 0 0 1 1 1 2 3 3 1
9 8 8 10 10 11 10 9 9 8 7 6 5 5 5 5 4 3 2 2 2 1 2 2 1 1 1 1 1 1 0 0 1 1 1 1 1 1 0 1 1 2 3
9 9 8 7 7 7 8 8 8 6 6 6 5 4 4 4 3 3 3 2 2 2 2 2 1 1 1 1 1 1 1 1 1 1 1 2 1 1 1 1 1 1 2
8 7 6 6 6 6 7 7 7 6 6 5 4 4 3 3 3 3 3 2 2 2 2 1 1 2 1 1 2 2 1 1 2 2 1 2 1 1 1 1 2 2 2
6 6 6 6 6 6 6 6 6 6 5 5 4 4 4 4 4 4 3 3 2 2 1 2 2 2 2 2 2 2 2 2 2 2 2 2 1 2 2 2 2 2 2
6 6 5 5 5 5 5 6 5 5 5 5 5 5 4 5 4 3 3 2 2 2 2 2 2 3 2 2 2 2 2 2 2 2 2 2 2 3 2 2 2 2 2
5 6 6 5 5 5 4 4 4 4 4 5 5 5 4 4 3 2 2 2 3 3 3 3 3 3 3 2 2 2 3 3 3 2 3 3 3 3 3 2 2 2 2
6 6 6 5 5 5 5 5 4 4 4 5 4 4 3 3 3 3 2 2 2 3 2 3 3 3 3 3 4 3 3 3 3 4 4 4 3 3 3 3 3 3 3
5 6 7 7 7 6 6 6 5 4 4 4 4 4 4 3 3 3 2 3 3 2 2 3 3 3 4 4 4 4 3 4 4 4 4 4 3 2 2 3 3 3 4
4 4 5 5 5 5 5 5 4 4 4 4 4 4 4 4 3 2 3 3 3 3 3 3 3 3 4 4 4 4 3 3 3 4 4 4 4 3 3 3 3 4 5
4 4 4 4 4 5 5 5 4 4 4 4 4 4 4 3 3 3 4 3 2 2 2 2 3 3 4 3 3 3 2 3 4 4 4 4 4 5 4 2 3 4 5
3 3 3 3 3 3 4 5 4 4 4 4 4 4 4 4 4 5 4 2 2 3 2 2 3 3 4 4 3 3 2 3 3 3 4 5 5 6 4 3 3 5 6
2 3 4 4 3 4 5 4 4 4 4 3 3 3 3 3 3 3 2 2 2 2 2 2 3 3 4 4 4 3 3 3 3 3 4 4 6 6 6 5 5 7 5
2 2 3 3 2 3 4 3 3 3 2 3 3 2 2 2 2 2 2 2 2 2 2 2 3 3 3 4 3 3 3 3 3 4 4 4 5 6 6 4 5 6 3
1 2 4 3 1 2 4 3 2 1 2 2 2 2 2 1 1 1 1 1 1 2 3 2 3 4 3 3 4 3 4 3 3 3 5 5 5 5 4 6 6 4 2
2 3 5 4 1 1 2 2 1 1 2 2 1 1 1 1 1 1 1 2 2 2 3 3 3 3 2 3 2 2 2 2 3 3 4 4 4 3 4 4 3 2 2
2 3 4 4 2 1 1 0 1 2 2 1 1 1 1 1 1 1 2 3 3 4 4 4 3 2 3 4 4 2 2 2 2 1 2 2 2 2 3 3 3 3 2
2 2 2 3 2 2 0 1 0 2 2 1 1 1 1 1 2 1 2 3 3 4 3 4 4 3 4 4 3 3 2 2 1 1 1 2 2 3 3 4 4 3 3
Wind_Direction
173 165 165 162 157 155 151 154 153 158 144 127 127 131 153 203 226 195 146 143 142 129 120 106 89 103 110 119 107 99 72 38 60 52 5 353 345 338 276 239 217 219 206
165 170 169 168 166 167 163 160 165 167 168 172 172 169 167 192 196 211 144 168 161 160 138 134 123 123 113 68 85 113 88 324 88 119 67 1 350 353 344 353 169 233 204
174 175 175 176 171 173 173 172 174 173 176 171 141 114 75 38 28 13 298 240 177 164 159 148 147 150 151 179 203 161 150 223 290 143 138 147 247 314 330 344 13 2 308
174 175 176 177 179 180 173 169 172 174 175 161 151 153 160 180 212 213 218 242 207 175 162 168 161 161 151 175 227 170 165 159 264 309 208 179 171 168 310 325 331 320 293
174 176 179 181 180 177 173 171 169 174 175 162 160 158 169 188 197 190 200 225 237 207 190 171 159 154 153 165 145 117 128 153 177 213 253 56 89 140 171 279 314 328 300
175 177 176 169 169 170 171 172 172 178 175 170 169 167 174 176 173 197 205 223 231 243 226 170 172 178 164 166 156 141 131 148 160 186 168 155 170 213 181 224 265 289 295
172 175 176 173 172 172 173 174 174 177 178 176 183 184 183 177 186 193 194 193 208 221 237 200 188 194 190 172 149 134 162 169 164 213 207 179 199 195 182 182 243 276 287
172 175 181 180 180 179 175 172 170 176 179 184 194 193 182 178 191 196 191 200 207 214 211 185 186 191 180 167 143 144 201 181 254 309 151 207 256 172 166 172 169 299 309
171 175 180 178 177 176 178 174 173 178 182 184 187 188 189 186 196 202 196 208 214 208 181 176 188 200 181 172 147 161 216 168 269 276 314 251 276 221 181 168 164 166 235
169 173 178 181 180 180 178 173 175 181 185 184 186 192 199 198 195 189 191 200 205 199 183 187 182 182 204 158 141 171 214 107 300 273 319 308 289 296 252 190 188 176 186
168 172 173 168 165 168 171 173 174 175 179 186 190 185 194 192 180 183 193 188 185 190 193 190 177 175 201 198 174 208 197 208 289 304 289 290 278 281 284 261 241 217 190
162 157 153 150 153 163 169 169 170 177 187 185 185 191 191 186 185 196 200 195 194 188 184 171 179 204 215 211 199 220 223 221 250 269 279 292 308 301 273 262 261 250 222
142 140 139 144 160 171 170 165 168 175 178 171 182 200 197 194 200 208 208 201 190 194 190 170 179 209 225 224 221 216 220 218 231 242 243 270 295 295 280 268 267 264 267
132 136 148 159 162 165 166 167 172 173 165 168 182 194 204 204 207 206 203 194 188 195 204 208 213 215 224 225 216 209 217 231 243 234 227 241 231 243 257 267 262 256 262
135 146 156 166 162 157 163 166 170 174 175 173 181 199 205 198 189 180 182 182 195 212 217 218 227 230 229 230 220 224 222 229 247 249 246 243 233 239 247 260 250 236 235
156 161 157 164 166 170 180 181 186 188 175 174 186 193 191 186 186 186 181 177 205 224 226 224 225 235 249 254 228 213 231 232 234 244 255 257 265 274 278 275 258 230 224
161 170 170 177 179 183 184 189 191 176 168 179 189 189 177 179 191 191 184 199 212 219 239 245 234 241 258 255 236 220 222 235 238 238 245 260 271 265 273 289 295 281 259
161 171 179 180 175 174 177 181 175 170 177 187 193 191 187 195 201 196 203 215 215 221 233 246 239 241 261 256 241 228 226 240 249 242 232 233 252 261 253 262 283 281 276
173 173 181 177 171 174 177 166 172 182 186 194 195 193 189 196 207 220 225 218 208 223 238 246 242 241 268 267 242 218 224 244 259 258 246 230 241 259 254 243 264 284 287
155 144 145 122 135 175 163 160 178 180 198 203 202 195 192 201 216 225 225 213 203 217 231 255 250 240 256 263 250 218 218 240 260 269 264 249 249 260 253 233 240 262 274
138 125 126 132 158 166 152 159 174 199 210 201 191 196 206 213 222 223 213 202 200 216 243 262 270 257 251 256 246 227 213 226 238 254 263 265 264 264 261 244 238 248 260
104 120 131 145 162 153 141 147 186 211 199 182 183 200 210 224 231 207 213 212 212 229 253 264 279 278 268 259 256 242 224 224 223 248 259 263 269 270 269 257 261 263 266
95 131 133 122 117 141 141 155 212 192 171 167 179 192 190 214 207 190 219 243 245 246 261 257 267 281 286 284 280 264 253 250 240 257 269 279 280 283 278 273 274 269 255
85 103 112 109 89 65 113 156 196 161 135 139 161 176 191 248 299 246 231 236 246 249 258 253 259 274 290 292 292 286 286 283 274 286 295 292 281 275 275 287 288 266 241
97 111 125 130 138 112 95 157 162 132 112 117 173 199 204 219 250 271 264 246 240 228 229 237 232 240 267 263 242 240 264 262 256 288 323 323 316 301 293 287 283 273 270
118 112 127 135 142 139 131 319 326 131 134 151 229 240 232 246 249 262 317 318 279 276 253 233 223 238 241 245 235 236 249 261 215 127 269 276 270 267 271 271 275 272 264
Height
1526 1527 1529 1530 1531 1532 1532 1533 1533 1534 1535 1535 1536 1536 1537 1537 1537 1537 1537 1537 1537 1536 1536 1536 1535 1535 1534 1534 1534 1534 1533 1533 1533 1533 1532 1532 1532 1532 1532 1531 1531 1530 1529
1525 1527 1528 1529 1530 1531 1532 1533 1533 1534 1535 1535 1536 1537 1537 1537 1537 1537 1537 1537 1537 1537 1537 1536 1536 1535 1535 1534 1534 1534 1533 1533 1533 1533 1532 1531 1532 1531 1531 1530 1530 1529 1529
1522 1524 1526 1527 1529 1530 1531 1532 1533 1534 1534 1535 1536 1537 1537 1537 1537 1537 1537 1537 1537 1537 1536 1536 1536 1535 1535 1534 1534 1533 1533 1533 1533 1533 1533 1532 1531 1530 1530 1530 1529 1529 1528
1519 1522 1524 1526 1527 1529 1530 1531 1532 1533 1534 1535 1535 1536 1536 1536 1537 1537 1537 1537 1537 1537 1536 1536 1535 1535 1534 1534 1533 1533 1533 1533 1532 1532 1532 1532 1531 1530 1530 1529 1528 1528 1527
1517 1519 1521 1523 1526 1527 1529 1530 1531 1532 1533 1534 1535 1535 1535 1536 1536 1537 1537 1536 1536 1536 1536 1535 1534 1534 1533 1533 1532 1532 1532 1532 1532 1531 1531 1530 1530 1529 1529 1528 1527 1527 1526
1516 1518 1520 1522 1524 1526 1528 1529 1530 1531 1532 1533 1533 1534 1534 1535 1535 1535 1535 1535 1535 1535 1534 1534 1534 1533 1533 1532 1532 1531 1531 1531 1530 1530 1530 1529 1528 1528 1527 1526 1525 1525 1525
1513 1516 1518 1520 1522 1524 1525 1527 1528 1529 1530 1531 1532 1533 1533 1534 1534 1534 1534 1534 1534 1533 1533 1533 1533 1532 1532 1531 1531 1530 1530 1530 1529 1529 1528 1528 1527 1527 1526 1525 1524 1523 1523
1511 1513 1515 1517 1519 1522 1523 1525 1526 1527 1529 1530 1531 1532 1532 1533 1533 1533 1533 1533 1533 1533 1533 1533 1532 1531 1531 1530 1530 1529 1529 1528 1528 1527 1527 1526 1526 1525 1524 1523 1523 1522 1521
1509 1511 1513 1516 1517 1520 1521 1523 1525 1526 1527 1528 1529 1530 1531 1531 1532 1532 1532 1532 1532 1532 1532 1532 1531 1531 1530 1529 1529 1528 1527 1527 1526 1526 1525 1524 1524 1523 1522 1522 1521 1521 1519
1508 1510 1512 1514 1516 1518 1520 1522 1523 1525 1526 1527 1528 1529 1529 1530 1530 1531 1531 1531 1531 1531 1531 1530 1530 1530 1529 1528 1527 1526 1526 1525 1525 1524 1523 1522 1521 1521 1520 1520 1519 1519 1518
1506 1508 1510 1512 1514 1517 1518 1520 1522 1523 1525 1526 1526 1527 1528 1529 1529 1529 1530 1530 1529 1529 1529 1529 1528 1528 1527 1527 1526 1525 1524 1524 1523 1522 1521 1520 1520 1519 1518 1518 1517 1516 1516
1505 1507 1510 1512 1514 1515 1516 1518 1520 1521 1523 1524 1525 1526 1526 1527 1527 1527 1528 1528 1528 1528 1527 1527 1526 1526 1525 1525 1524 1523 1523 1522 1521 1520 1519 1518 1517 1517 1516 1515 1514 1514 1513
1507 1508 1509 1511 1513 1514 1515 1517 1518 1520 1521 1522 1523 1524 1524 1525 1525 1525 1526 1526 1526 1526 1525 1525 1524 1524 1523 1523 1522 1521 1521 1520 1519 1518 1517 1516 1515 1514 1514 1513 1512 1511 1510
1506 1508 1509 1511 1512 1514 1515 1516 1517 1518 1519 1521 1521 1521 1522 1522 1523 1523 1523 1523 1523 1523 1523 1523 1522 1521 1521 1520 1520 1519 1518 1517 1516 1516 1515 1514 1513 1512 1511 1510 1509 1508 1507
1506 1507 1508 1509 1511 1513 1514 1515 1516 1517 1518 1519 1519 1520 1520 1521 1521 1521 1521 1521 1521 1521 1520 1520 1519 1518 1518 1517 1517 1516 1515 1514 1513 1513 1512 1511 1510 1509 1508 1507 1506 1505 1504
1506 1506 1507 1508 1509 1511 1512 1514 1515 1515 1516 1517 1517 1518 1518 1518 1518 1519 1518 1519 1518 1518 1518 1517 1516 1515 1515 1514 1514 1513 1512 1511 1510 1510 1509 1508 1507 1506 1505 1504 1503 1502 1501
1505 1506 1506 1507 1508 1509 1510 1512 1513 1514 1514 1515 1515 1516 1516 1516 1516 1516 1516 1516 1516 1515 1514 1514 1513 1512 1512 1511 1510 1510 1509 1508 1507 1506 1506 1505 1504 1503 1502 1501 1500 1499 1498
1504 1504 1504 1505 1506 1508 1509 1510 1511 1512 1512 1513 1513 1513 1513 1513 1513 1513 1513 1513 1512 1512 1511 1510 1509 1509 1508 1508 1507 1506 1506 1505 1504 1503 1503 1502 1501 1500 1499 1497 1496 1495 1494
1502 1502 1503 1503 1505 1506 1507 1508 1509 1509 1510 1510 1510 1511 1511 1511 1510 1510 1510 1509 1509 1509 1508 1507 1506 1505 1504 1504 1503 1503 1502 1501 1500 1500 1499 1498 1497 1496 1495 1494 1492 1491 1490
1500 1500 1501 1502 1503 1504 1505 1505 1506 1506 1507 1507 1507 1508 1508 1508 1507 1507 1507 1506 1506 1505 1505 1504 1503 1502 1501 1500 1500 1499 1498 1497 1496 1496 1495 1494 1494 1493 1491 1490 1489 1487 1487
1499 1499 1499 1500 1501 1501 1502 1502 1503 1503 1504 1504 1505 1505 1505 1504 1504 1504 1504 1503 1503 1502 1502 1501 1500 1499 1498 1497 1496 1496 1495 1494 1493 1492 1491 1490 1489 1489 1488 1487 1486 1485 1484
1497 1497 1497 1498 1499 1499 1500 1500 1500 1500 1501 1501 1501 1501 1501 1501 1501 1501 1500 1500 1500 1499 1498 1498 1497 1496 1496 1494 1493 1493 1492 1491 1490 1489 1488 1487 1486 1485 1484 1483 1483 1482 1482
1495 1496 1496 1497 1498 1498 1498 1498 1498 1498 1498 1498 1498 1498 1498 1498 1498 1498 1497 1497 1497 1496 1495 1494 1494 1493 1492 1492 1491 1490 1489 1488 1487 1486 1485 1484 1483 1482 1481 1480 1479 1479 1478
1495 1495 1495 1496 1496 1496 1497 1497 1496 1496 1496 1496 1496 1496 1496 1496 1495 1495 1495 1494 1494 1493 1492 1492 1491 1490 1489 1488 1487 1487 1486 1484 1484 1483 1482 1481 1480 1479 1478 1477 1476 1476 1475
1495 1495 1495 1495 1495 1495 1495 1495 1494 1494 1494 1494 1493 1493 1493 1493 1493 1492 1492 1491 1491 1490 1490 1489 1488 1487 1486 1485 1485 1483 1483 1482 1480 1479 1478 1478 1476 1475 1474 1474 1473 1472 1472
1494 1494 1494 1494 1494 1494 1494 1494 1493 1492 1492 1491 1491 1491 1491 1490 1490 1489 1489 1488 1488 1487 1487 1486 1485 1484 1484 1483 1482 1481 1479 1479 1478 1477 1475 1475 1473 1472 1471 1471 1470 1469 1468